Location: Unspecified
(40.4667°N, 0.0000°E)
Time: 02:00:20
(UTC+00:00)

OTV 5 (USA 277) - Visible Passes

Search period start: 15 October 2019 00:00
Search period end: 25 October 2019 00:00
Orbit: 310 x 324 km, 54.5° (Epoch: 08 October)

Date Brightness Start Highest point End Pass type
(mag) Time Alt. Az. Time Alt. Az. Time Alt. Az.
15 Oct ? 05:26:01 10° N 05:27:20 13° NNE 05:28:39 10° NE visible
16 Oct ? 05:39:50 10° NNW 05:42:09 23° NNE 05:44:26 10° E visible
18 Oct ? 04:36:01 15° N 04:36:52 17° NNE 04:38:46 10° ENE visible
19 Oct ? 04:50:31 24° NNW 04:51:37 35° NE 04:54:10 10° ESE visible
20 Oct ? 05:05:08 33° WNW 05:06:12 75° SW 05:08:55 10° SE visible
21 Oct ? 05:19:54 20° WSW 05:20:38 23° SW 05:22:53 10° S visible
